Wetbulb
71.39 73.21 74.44 74.31 74.07 73.71 73.52 73.21 73.11 72.98 72.57 71.97 71.62 71.54 71.48 71.47 70.57 69.62 69.65 69.86 69.71 70.61 71.73 71.57 71.09 71.13 71.05 71.03 70.55 69.56 70.00 70.96 70.68 69.28 68.53 68.32 69.38 70.25 69.84 69.38 69.22 68.26 70.63
72.41 72.78 74.29 73.96 73.55 73.33 72.95 72.73 72.60 72.45 72.33 72.13 71.84 71.69 71.66 71.49 71.38 70.57 69.28 69.62 70.48 71.08 72.17 72.80 71.18 70.22 69.89 69.95 69.72 69.28 68.58 68.44 69.67 69.33 69.07 68.36 68.50 68.56 68.68 68.09 68.03 67.93 68.50
71.52 72.47 73.42 74.00 73.45 73.12 72.89 72.77 72.63 72.61 72.53 72.56 72.50 72.29 72.20 72.23 72.04 71.88 71.21 70.15 69.75 70.30 71.03 71.85 72.23 70.79 70.07 69.70 69.25 68.64 68.42 68.37 67.88 68.27 69.18 68.67 69.68 70.49 70.32 70.39 67.96 67.56 68.14
71.93 72.30 72.52 73.38 73.32 73.11 73.01 72.89 72.27 71.69 71.15 71.01 70.98 71.19 71.32 70.81 70.62 71.09 71.78 72.16 72.07 72.03 71.84 71.25 70.86 71.20 71.57 71.02 70.74 70.30 69.56 68.71 68.85 68.48 66.64 66.70 66.38 70.71 69.53 69.40 70.71 69.92 68.36
71.48 72.03 72.45 72.44 71.74 70.89 70.07 69.52 69.21 68.99 68.88 68.84 68.93 69.05 68.78 68.84 68.47 68.49 68.65 68.85 69.34 69.89 70.75 71.75 71.95 71.90 71.36 71.40 71.71 71.69 71.21 70.65 69.93 68.69 67.46 67.33 67.07 68.22 68.96 68.88 69.76 71.13 70.62
69.28 70.19 69.18 69.20 68.80 68.40 68.31 68.14 67.77 67.31 66.97 66.95 66.72 66.77 66.76 66.61 66.23 65.70 65.58 65.56 66.02 66.47 67.10 68.03 69.10 70.32 71.41 71.62 71.61 71.58 71.55 71.63 70.79 69.98 70.14 69.34 67.30 69.38 68.02 69.09 69.36 71.05 70.70
68.72 68.96 67.70 67.51 67.27 66.99 66.59 66.15 65.98 65.60 65.19 64.65 64.26 64.09 64.12 64.12 64.05 63.89 63.50 63.79 63.98 64.32 64.91 65.51 66.01 66.96 67.75 68.42 70.38 71.33 71.49 70.86 70.01 69.64 69.20 69.96 69.80 67.82 68.57 69.04 69.56 70.25 71.26
67.49 66.79 65.43 64.94 64.89 64.77 64.63 64.35 64.00 63.66 63.41 63.01 62.60 62.04 61.96 61.94 62.25 62.45 62.36 62.75 62.94 63.31 63.21 63.34 63.79 64.55 65.04 65.50 65.81 67.12 68.91 69.70 69.25 69.29 69.64 68.95 70.79 69.04 69.04 68.90 69.02 69.68 70.42
63.38 62.59 62.39 61.67 62.11 62.42 62.27 62.04 62.03 61.86 61.61 61.24 60.66 60.12 59.82 60.20 60.74 61.33 61.40 61.86 62.26 62.25 62.21 62.33 62.43 62.69 63.03 63.30 63.14 63.80 64.80 66.43 69.05 69.86 69.20 69.10 70.75 69.73 69.72 70.35 70.59 70.00 69.58
60.48 60.04 59.63 59.36 59.13 59.70 59.63 59.93 59.88 59.67 59.58 59.31 59.22 58.47 58.16 59.92 59.68 60.05 60.01 60.49 61.36 61.49 61.54 61.74 61.77 61.78 61.46 61.20 61.43 61.85 63.23 63.60 65.18 68.74 69.16 69.01 70.60 70.05 70.13 70.80 70.33 70.58 70.72
58.15 58.30 58.41 58.28 58.67 58.60 58.60 58.35 59.19 58.73 58.83 59.25 59.66 59.28 60.57 60.17 59.78 60.03 58.16 58.36 59.23 59.91 60.49 61.02 61.28 61.45 61.33 61.49 61.79 62.15 61.50 60.66 62.13 65.48 68.63 69.83 69.80 69.91 69.81 70.22 69.91 70.27 70.63
56.13 56.91 57.97 58.50 58.36 58.47 57.83 59.03 59.28 59.31 59.96 59.96 59.87 59.74 59.54 59.54 58.89 58.79 58.52 57.80 58.98 58.71 60.65 60.06 60.75 61.96 62.35 60.39 60.51 61.68 59.95 60.44 61.19 62.18 64.31 67.28 67.69 68.72 68.96 69.31 69.35 69.21 69.44
56.16 56.52 57.45 57.99 58.50 58.27 58.39 59.18 59.38 59.41 59.77 59.60 59.04 58.62 58.63 58.53 58.76 58.79 58.62 58.47 58.53 58.66 58.34 59.14 59.11 58.84 59.23 59.70 59.84 59.89 59.90 59.69 59.94 61.30 64.75 65.74 66.35 67.76 68.17 68.07 68.06 68.27 68.51
56.01 56.24 57.13 57.78 57.66 58.22 58.59 58.52 58.85 58.59 58.97 58.43 58.38 57.47 57.62 57.60 57.69 57.28 57.10 57.35 57.24 57.30 57.08 57.20 57.17 57.31 57.81 58.41 59.00 58.89 59.19 59.72 59.58 60.17 62.95 63.56 63.61 65.08 66.07 66.12 66.35 66.87 67.49
54.98 55.87 56.82 57.63 57.42 57.69 58.05 58.42 58.45 58.24 57.95 57.83 57.39 57.33 57.18 56.62 56.05 56.31 56.22 56.12 55.94 56.02 55.59 55.31 55.82 55.92 56.31 57.00 58.10 57.56 58.04 59.33 59.85 59.84 60.68 61.78 62.95 63.70 64.42 65.18 65.47 65.68 65.87
55.04 55.57 56.63 56.72 57.20 57.49 57.71 57.92 57.79 57.83 57.52 57.10 56.99 56.77 56.38 55.90 55.13 55.08 54.73 54.24 53.56 53.90 53.74 53.60 53.88 54.11 55.06 56.28 56.14 56.41 57.08 58.70 59.17 59.78 60.23 60.80 60.61 61.09 62.22 63.27 63.90 64.35 64.94
55.21 55.84 56.01 56.33 56.65 56.75 57.10 57.21 57.40 56.83 57.04 56.54 56.47 56.28 55.45 54.75 54.19 53.93 53.37 52.84 52.71 53.29 53.19 53.41 53.36 53.96 54.08 54.69 54.38 55.85 56.70 57.57 58.43 59.40 60.07 60.60 59.26 57.96 58.35 59.84 60.70 61.72 62.69
55.18 54.58 55.56 55.34 56.08 56.25 56.69 56.86 56.56 56.85 56.85 56.46 56.26 56.31 55.06 54.05 53.54 53.06 52.62 52.22 52.54 52.99 53.05 52.52 52.28 52.02 52.73 52.97 53.48 55.77 57.71 58.37 58.52 58.93 58.58 57.85 58.34 57.29 56.19 56.08 56.42 57.98 59.21
55.00 54.87 55.35 55.92 55.61 55.79 56.16 56.42 56.40 56.16 56.32 56.31 56.44 56.00 54.79 54.05 53.03 52.39 52.22 52.24 52.37 52.43 52.28 52.05 51.85 51.71 51.43 51.92 52.81 56.37 56.97 56.96 57.26 57.68 55.96 55.73 54.92 54.15 54.33 54.54 53.99 53.21 54.34
55.17 55.42 56.15 55.76 55.63 55.74 56.13 56.07 56.13 55.84 55.93 56.42 56.13 55.59 54.50 54.08 52.97 51.99 51.75 51.58 51.85 51.55 51.06 51.05 50.56 51.75 51.52 51.20 52.20 54.87 56.05 56.19 55.57 54.65 55.32 55.01 53.60 52.52 52.00 51.84 52.20 52.29 52.30
55.10 54.77 55.21 54.86 55.29 55.39 55.28 54.52 54.08 53.74 54.82 55.36 55.93 55.01 54.23 53.81 52.90 51.96 51.18 50.76 50.81 50.16 49.73 49.73 49.77 49.74 50.63 51.37 51.66 51.40 54.68 54.35 54.00 54.14 54.46 54.11 54.00 53.41 51.85 50.89 50.12 50.09 50.48
54.31 54.45 54.88 54.92 55.16 55.12 55.16 54.79 54.46 54.39 54.79 54.78 55.39 55.01 54.13 53.40 52.89 51.31 50.49 50.09 49.95 49.28 49.29 48.91 48.89 48.35 49.57 51.27 47.62 49.29 47.71 51.07 53.48 53.24 53.26 52.67 52.31 52.70 51.58 49.75 48.17 47.37 47.81
54.21 54.30 54.55 54.82 54.89 55.05 54.97 54.55 54.31 54.30 54.39 53.62 54.04 53.93 54.04 53.26 52.97 52.05 50.85 49.99 49.72 49.43 48.43 48.46 48.07 47.81 46.62 50.02 49.74 46.44 44.21 44.08 46.29 51.71 51.39 51.38 50.68 50.45 50.25 48.87 47.33 45.75 45.21
54.56 56.44 55.16 54.99 54.73 55.08 55.22 54.13 53.21 52.43 51.53 53.20 53.08 53.79 53.72 53.60 52.54 52.32 51.36 50.26 49.69 49.27 48.42 48.09 47.16 47.74 47.58 46.53 49.35 49.21 48.65 47.39 43.97 43.33 50.17 51.14 50.74 48.79 48.34 47.38 45.81 45.23 43.30
55.25 56.12 55.69 54.86 54.68 54.82 54.83 54.30 53.81 52.93 53.44 53.80 53.48 52.95 53.20 53.49 52.97 51.92 51.26 50.37 49.51 49.18 48.63 47.51 46.96 46.57 47.26 46.12 46.82 46.51 45.85 46.75 47.01 45.30 42.78 45.56 47.87 48.24 48.44 46.51 45.26 44.45 42.30
54.15 54.83 54.80 54.09 54.02 54.48 54.37 54.21 53.57 53.23 53.22 52.95 53.41 53.15 53.63 53.87 53.58 52.39 51.14 50.22 49.88 49.13 48.12 47.68 47.15 46.22 46.35 46.24 46.41 46.33 44.96 42.92 42.73 43.00 41.81 42.74 42.26 44.95 47.05 46.57 44.58 43.60 42.17
MSLP
1013.33 1014.61 1015.36 1015.62 1015.85 1016.04 1016.14 1016.24 1016.38 1016.46 1016.52 1016.59 1016.63 1016.62 1016.61 1016.58 1016.56 1016.53 1016.49 1016.46 1016.38 1016.26 1016.12 1016.02 1015.99 1015.99 1015.95 1015.95 1015.94 1015.93 1015.89 1015.86 1015.85 1015.86 1015.86 1015.82 1015.73 1015.63 1015.64 1015.62 1015.44 1014.84 1015.40
1013.15 1014.42 1015.52 1015.75 1015.99 1016.23 1016.36 1016.46 1016.60 1016.69 1016.70 1016.74 1016.75 1016.76 1016.74 1016.72 1016.67 1016.61 1016.57 1016.50 1016.41 1016.31 1016.21 1015.94 1016.11 1016.11 1016.09 1016.07 1016.05 1016.04 1016.00 1015.98 1015.94 1015.93 1015.88 1015.84 1015.69 1015.63 1015.69 1015.71 1015.63 1015.46 1015.53
1014.04 1014.71 1015.35 1015.97 1016.19 1016.42 1016.64 1016.66 1016.77 1016.82 1016.85 1016.86 1016.85 1016.82 1016.79 1016.76 1016.74 1016.70 1016.66 1016.62 1016.54 1016.43 1016.35 1016.27 1016.19 1016.17 1016.15 1016.15 1016.13 1016.07 1016.03 1016.05 1016.05 1015.99 1015.86 1015.40 1014.78 1015.22 1015.49 1015.59 1015.63 1015.61 1015.56
1014.30 1014.74 1015.35 1016.23 1016.43 1016.66 1016.86 1016.95 1017.06 1017.10 1017.13 1017.10 1017.07 1017.01 1017.00 1016.97 1016.99 1016.95 1016.86 1016.82 1016.70 1016.58 1016.48 1016.40 1016.31 1016.23 1016.18 1016.14 1016.12 1016.08 1016.01 1015.98 1016.00 1016.04 1015.60 1014.59 1014.51 1014.97 1015.23 1015.45 1015.41 1015.40 1015.42
1015.17 1015.65 1016.31 1016.56 1016.81 1017.00 1017.22 1017.33 1017.37 1017.41 1017.41 1017.38 1017.34 1017.32 1017.27 1017.25 1017.26 1017.26 1017.23 1017.19 1017.10 1016.95 1016.71 1016.54 1016.37 1016.20 1016.11 1016.05 1015.99 1015.97 1015.96 1015.93 1015.94 1015.89 1015.11 1014.77 1014.87 1014.70 1015.12 1015.36 1015.29 1015.18 1015.25
1015.56 1016.07 1016.92 1017.10 1017.32 1017.37 1017.56 1017.66 1017.71 1017.74 1017.74 1017.73 1017.72 1017.71 1017.67 1017.66 1017.65 1017.64 1017.57 1017.48 1017.40 1017.25 1017.06 1016.80 1016.62 1016.41 1016.19 1016.01 1015.87 1015.77 1015.73 1015.77 1015.86 1015.28 1014.50 1014.57 1014.86 1014.94 1015.16 1015.33 1015.35 1015.24 1015.00
1015.76 1016.39 1017.11 1017.58 1017.76 1017.78 1017.90 1018.00 1018.04 1018.08 1018.12 1018.14 1018.15 1018.15 1018.12 1018.08 1018.04 1017.97 1017.88 1017.77 1017.60 1017.44 1017.24 1017.03 1016.78 1016.62 1016.42 1016.23 1015.97 1015.76 1015.63 1015.63 1015.55 1015.04 1014.74 1014.26 1014.34 1014.70 1015.10 1015.23 1015.21 1015.15 1015.06
1016.03 1016.85 1017.40 1017.99 1018.18 1018.23 1018.28 1018.38 1018.43 1018.44 1018.49 1018.49 1018.51 1018.53 1018.45 1018.40 1018.37 1018.25 1018.11 1017.95 1017.78 1017.57 1017.38 1017.13 1016.94 1016.75 1016.60 1016.39 1016.18 1015.97 1015.77 1015.59 1015.21 1014.73 1014.53 1014.50 1014.27 1014.50 1014.90 1015.04 1015.03 1014.98 1014.90
1016.55 1017.13 1017.30 1017.64 1018.40 1018.61 1018.74 1018.81 1018.81 1018.83 1018.88 1018.84 1018.81 1018.81 1018.72 1018.65 1018.49 1018.42 1018.23 1018.19 1017.98 1017.75 1017.54 1017.28 1017.02 1016.78 1016.58 1016.37 1016.11 1015.92 1015.70 1015.50 1015.21 1014.52 1014.23 1014.29 1014.29 1014.39 1014.67 1014.89 1014.87 1014.79 1014.71
1017.15 1017.41 1017.67 1017.64 1017.84 1018.03 1018.65 1019.16 1019.16 1019.18 1019.14 1019.04 1018.94 1018.87 1018.72 1018.56 1018.39 1018.46 1018.44 1018.42 1018.18 1017.93 1017.68 1017.36 1017.08 1016.81 1016.55 1016.28 1016.00 1015.84 1015.65 1015.35 1014.78 1014.13 1014.00 1014.14 1014.33 1014.37 1014.51 1014.56 1014.71 1014.71 1014.42
1017.74 1017.91 1017.96 1017.80 1017.98 1018.20 1018.48 1019.05 1019.17 1019.20 1018.98 1018.83 1018.78 1018.65 1018.33 1018.08 1018.22 1018.04 1018.61 1018.50 1018.24 1017.94 1017.74 1017.42 1017.12 1016.79 1016.39 1015.78 1015.55 1015.40 1015.23 1014.51 1013.69 1013.26 1013.40 1013.94 1014.24 1014.38 1014.45 1014.42 1014.44 1014.44 1014.29
1017.93 1018.35 1018.42 1018.35 1018.41 1018.41 1018.40 1018.40 1018.61 1018.67 1018.61 1018.55 1018.54 1018.41 1018.19 1018.16 1018.40 1018.33 1018.23 1018.15 1017.90 1017.75 1017.39 1017.15 1016.84 1016.43 1016.04 1015.57 1015.18 1015.11 1014.48 1014.04 1013.88 1013.69 1013.45 1014.16 1014.57 1014.61 1014.52 1014.43 1014.22 1014.20 1014.15
1018.11 1018.41 1018.67 1018.67 1018.72 1018.55 1018.69 1018.48 1018.51 1018.59 1018.58 1018.67 1018.79 1018.66 1018.42 1018.27 1018.26 1018.05 1017.91 1017.89 1017.78 1017.53 1017.18 1016.94 1016.57 1016.28 1016.23 1015.92 1015.56 1015.16 1014.87 1014.58 1014.23 1013.86 1013.88 1014.20 1014.66 1014.89 1014.63 1014.37 1014.20 1014.06 1013.93
1018.07 1018.56 1018.84 1018.85 1018.98 1018.99 1018.84 1018.73 1018.84 1018.90 1018.89 1018.97 1019.00 1019.04 1018.72 1018.58 1018.45 1018.34 1018.21 1018.16 1017.99 1017.81 1017.50 1017.26 1016.94 1016.62 1016.37 1015.98 1015.76 1015.44 1015.11 1014.81 1014.50 1014.21 1014.34 1014.86 1015.13 1015.20 1014.91 1014.64 1014.39 1014.16 1013.99
1018.00 1018.66 1018.89 1018.95 1019.06 1019.15 1019.15 1019.09 1019.03 1019.01 1019.08 1019.16 1019.28 1019.40 1019.28 1019.03 1018.89 1018.81 1018.54 1018.37 1018.22 1018.13 1017.82 1017.49 1017.17 1016.92 1016.57 1016.18 1015.80 1015.54 1015.28 1014.97 1014.83 1014.64 1014.53 1015.27 1015.32 1015.33 1015.01 1014.74 1014.50 1014.33 1014.17
1017.98 1018.50 1018.88 1019.08 1019.21 1019.33 1019.28 1019.43 1019.36 1019.29 1019.39 1019.45 1019.61 1019.69 1019.55 1019.48 1019.44 1019.19 1018.75 1018.65 1018.52 1018.35 1018.08 1017.77 1017.45 1017.22 1016.76 1016.28 1016.05 1015.55 1015.34 1015.12 1014.99 1014.87 1014.80 1015.59 1015.72 1015.95 1015.72 1015.36 1015.11 1014.86 1014.59
1017.72 1018.39 1018.78 1019.20 1019.34 1019.37 1019.54 1019.60 1019.60 1019.72 1019.57 1019.66 1019.70 1019.87 1019.80 1019.89 1019.71 1019.43 1019.20 1019.02 1018.83 1018.61 1018.32 1018.01 1017.60 1017.35 1017.01 1016.53 1016.16 1015.62 1015.44 1015.27 1015.14 1015.02 1015.03 1015.06 1016.02 1016.35 1016.55 1016.23 1015.96 1015.71 1015.39
1017.71 1018.31 1018.81 1019.15 1019.41 1019.43 1019.55 1019.73 1019.70 1019.81 1019.73 1019.71 1019.80 1019.82 1019.91 1020.01 1020.04 1019.64 1019.50 1019.33 1019.13 1018.84 1018.57 1018.35 1017.87 1017.54 1017.25 1016.85 1016.43 1015.86 1015.65 1015.44 1015.35 1015.29 1015.68 1015.95 1016.17 1016.51 1016.75 1016.80 1016.67 1016.38 1016.14
1017.68 1018.24 1018.77 1019.04 1019.17 1019.30 1019.51 1019.74 1019.88 1019.90 1019.72 1019.80 1019.78 1019.77 1020.11 1020.20 1020.15 1019.94 1019.86 1019.70 1019.38 1019.09 1018.75 1018.52 1018.17 1017.89 1017.47 1017.20 1016.67 1016.13 1016.06 1015.97 1015.96 1015.88 1016.62 1016.66 1016.92 1016.94 1016.79 1016.92 1017.01 1016.99 1016.86
1017.62 1018.12 1018.50 1018.96 1019.12 1019.29 1019.54 1019.69 1019.71 1019.77 1019.75 1019.74 1019.75 1019.82 1020.14 1020.09 1020.24 1020.18 1019.99 1019.83 1019.57 1019.31 1019.09 1018.75 1018.48 1018.17 1017.75 1017.62 1016.99 1016.40 1016.40 1016.38 1016.73 1017.05 1017.00 1017.03 1017.30 1017.38 1017.35 1017.24 1017.07 1017.05 1017.23
1017.74 1018.11 1018.47 1018.83 1019.08 1019.28 1019.37 1019.40 1019.51 1019.38 1019.59 1019.66 1019.72 1020.04 1020.16 1020.21 1020.28 1020.23 1020.03 1019.89 1019.75 1019.50 1019.46 1019.11 1018.80 1018.46 1017.96 1017.87 1017.13 1016.76 1016.37 1016.72 1016.84 1016.96 1016.94 1016.89 1016.87 1017.11 1017.41 1017.49 1017.48 1017.33 1017.17
1017.53 1017.98 1018.35 1018.59 1018.94 1019.21 1019.43 1019.35 1019.63 1019.60 1019.58 1019.72 1019.86 1020.04 1020.17 1020.16 1020.26 1020.23 1020.08 1020.05 1019.93 1019.77 1019.59 1019.46 1019.21 1018.92 1018.41 1018.22 1018.05 1017.27 1016.50 1016.43 1016.58 1016.76 1017.04 1017.14 1017.13 1017.18 1017.51 1017.90 1018.05 1018.05 1017.86
1017.17 1017.66 1018.08 1018.42 1018.87 1019.19 1019.28 1019.54 1019.70 1019.77 1019.97 1019.87 1019.80 1019.90 1019.94 1020.05 1020.11 1020.22 1020.10 1020.11 1020.05 1020.02 1019.75 1019.66 1019.46 1019.19 1018.94 1018.47 1018.39 1018.22 1017.59 1017.06 1017.02 1016.42 1016.92 1017.21 1017.41 1017.56 1017.81 1018.21 1018.38 1018.57 1018.47
1016.91 1017.43 1017.88 1018.45 1018.79 1018.93 1019.22 1019.35 1019.34 1019.39 1019.46 1019.35 1019.58 1019.62 1019.72 1019.82 1019.91 1019.96 1020.06 1020.00 1020.04 1020.00 1019.83 1019.69 1019.60 1019.51 1019.30 1018.93 1018.68 1018.45 1018.62 1018.45 1017.86 1017.13 1016.73 1016.68 1017.15 1017.44 1018.04 1018.33 1018.60 1018.67 1018.87
1016.79 1017.36 1017.93 1018.25 1018.52 1018.74 1019.03 1019.24 1019.27 1019.32 1019.34 1019.39 1019.51 1019.54 1019.49 1019.36 1019.56 1019.72 1019.80 1019.70 1019.78 1019.80 1019.70 1019.66 1019.64 1019.53 1019.42 1019.26 1018.93 1018.76 1018.64 1018.41 1018.19 1017.92 1017.30 1016.97 1017.08 1017.30 1017.83 1018.27 1018.66 1018.75 1018.94
1016.77 1017.30 1017.78 1018.00 1018.27 1018.58 1018.92 1019.17 1019.31 1019.34 1019.27 1019.21 1019.15 1019.04 1018.90 1018.82 1018.86 1019.13 1019.45 1019.51 1019.54 1019.58 1019.65 1019.59 1019.60 1019.68 1019.54 1019.39 1019.20 1018.92 1018.73 1018.66 1018.44 1018.54 1018.14 1017.74 1017.61 1017.40 1017.53 1018.04 1018.59 1018.83 1018.99
Wind_Speed
9 13 10 11 11 10 10 10 9 9 8 8 7 6 6 7 6 6 6 6 6 6 6 5 5 6 5 6 6 6 6 6 6 5 4 3 4 3 4 4 9 4 6
12 14 10 11 11 11 10 10 9 8 7 6 5 5 5 5 5 4 4 4 4 5 8 8 3 4 4 4 4 4 4 4 3 3 4 6 5 2 3 4 7 7 5
12 14 13 11 11 10 9 9 7 7 6 6 6 5 5 5 4 4 3 4 5 6 7 7 6 3 3 4 4 4 4 4 4 5 7 8 7 7 0 3 3 4 5
11 9 12 10 10 9 10 11 12 11 11 10 10 10 11 10 10 10 10 9 8 7 7 8 8 7 6 6 6 6 5 5 5 6 8 8 6 10 3 4 5 5 5
14 12 14 15 14 14 12 12 12 11 11 10 10 10 10 11 11 12 12 12 12 12 12 12 11 9 8 8 8 8 8 7 6 8 10 5 5 1 3 4 8 8 7
13 15 14 15 14 13 13 12 12 12 12 12 11 11 11 11 12 12 13 13 13 13 12 12 13 13 13 11 10 10 10 9 6 10 9 5 4 8 2 6 8 10 5
13 13 13 14 14 14 13 12 12 12 11 11 11 11 11 11 11 11 11 12 12 12 11 12 11 12 12 12 12 11 12 8 9 10 8 8 6 2 5 9 9 10 9
12 11 12 13 14 13 13 12 11 11 11 11 10 10 10 10 10 10 11 12 12 12 12 12 12 12 12 12 12 12 11 9 10 10 8 7 1 5 5 9 10 10 11
10 8 8 9 12 14 13 12 11 11 10 10 9 8 7 7 9 10 9 12 12 12 12 12 12 12 12 12 11 10 10 9 9 8 9 4 3 4 5 10 11 11 12
9 7 6 6 6 6 8 10 10 9 8 7 7 4 2 5 1 8 10 11 11 12 12 12 12 12 12 13 12 10 10 12 11 10 5 3 6 5 6 13 13 14 14
7 6 5 6 5 5 6 6 9 6 6 6 6 2 5 5 7 6 6 6 7 10 9 11 12 13 13 16 13 8 10 7 11 6 3 7 7 9 10 13 12 13 14
8 6 5 5 4 4 3 4 4 4 5 6 6 6 5 6 4 4 2 4 5 6 9 6 7 12 9 8 6 7 5 8 7 7 4 12 13 13 12 12 11 10 11
7 6 5 5 4 4 4 2 2 3 3 4 6 6 5 4 5 5 4 6 7 7 7 8 8 7 9 7 7 7 8 7 6 5 6 13 11 12 11 11 10 10 10
8 7 5 5 4 4 2 3 3 3 3 4 5 7 5 4 5 6 5 6 6 7 9 8 6 9 9 9 9 9 9 7 5 5 6 13 11 11 11 10 10 10 11
9 7 5 4 4 4 3 2 3 3 3 4 4 6 6 5 6 6 5 6 6 7 7 8 8 8 9 9 7 8 8 8 7 4 3 12 14 12 10 10 10 10 10
9 8 6 5 4 3 3 3 3 3 3 3 4 5 6 5 5 5 5 6 6 7 7 7 8 8 8 8 8 8 8 7 6 6 4 9 18 18 18 16 15 16 16
9 8 6 5 3 4 4 2 2 2 2 2 3 4 5 5 6 6 5 5 6 7 9 8 8 8 7 8 9 7 6 7 5 4 4 4 8 17 15 15 16 17 18
9 8 7 5 4 3 3 2 2 1 1 2 2 2 4 5 5 5 5 5 7 6 6 7 7 7 7 7 7 6 6 4 5 5 10 7 4 4 7 11 14 15 16
9 8 7 6 5 4 4 2 1 1 0 1 0 2 3 4 4 4 4 5 7 6 6 7 7 7 7 7 7 5 5 4 4 7 9 7 8 8 6 9 9 13 14
7 8 7 6 5 4 3 2 2 2 1 0 1 2 3 3 4 4 4 5 5 5 6 6 8 7 7 7 8 5 4 5 6 5 4 4 6 6 6 7 5 5 12
7 8 7 7 6 4 3 3 2 2 1 2 1 2 3 3 3 3 3 4 5 5 6 7 6 7 5 7 5 6 3 3 2 1 1 2 3 4 6 7 5 5 6
10 9 8 7 6 4 2 1 1 1 1 3 2 3 3 3 3 3 3 3 3 4 5 6 7 5 4 5 6 6 3 4 3 2 3 4 6 4 5 7 8 8 7
10 10 9 8 7 5 3 2 2 1 3 4 4 3 4 4 4 4 4 3 4 3 3 4 4 5 4 4 5 3 4 4 7 4 3 2 5 5 4 5 6 7 8
10 8 9 9 8 5 5 4 4 3 4 2 3 3 4 6 6 5 5 5 4 4 4 3 3 4 4 4 3 3 4 5 3 5 1 2 2 2 3 4 4 5 6
8 8 8 8 7 6 6 5 3 4 3 3 4 6 7 6 7 7 7 6 6 4 4 4 4 4 3 4 3 3 4 3 5 5 6 4 4 4 2 1 3 3 5
7 9 9 9 8 7 6 5 5 6 6 5 6 6 5 5 4 7 8 7 7 6 5 4 4 5 5 4 4 4 3 3 4 4 5 6 7 4 2 3 1 2 3
Wind_Direction
145 121 132 119 112 111 100 95 86 82 75 69 65 62 55 49 45 40 34 27 22 13 1 2 24 31 32 30 28 26 27 32 31 29 22 21 18 53 47 13 330 61 37
124 120 128 114 108 103 100 94 90 84 77 69 62 53 47 39 34 33 25 16 7 3 355 28 33 15 15 15 9 2 2 1 355 351 327 262 221 123 18 1 347 16 7
110 122 128 115 110 107 104 102 100 91 79 63 47 33 19 9 3 353 356 356 348 345 341 340 345 330 330 329 330 331 326 321 313 303 289 272 201 151 50 320 317 327 329
116 116 113 115 110 103 89 82 74 68 60 53 46 41 42 38 33 31 31 20 358 346 332 325 323 324 302 295 297 300 300 296 290 293 278 262 297 143 150 301 304 289 291
83 92 89 88 87 85 84 77 71 67 63 58 52 46 43 40 36 33 31 25 17 9 360 351 332 310 295 291 287 281 281 280 274 275 272 290 293 281 132 290 295 304 257
103 99 84 88 88 87 82 76 73 68 62 59 54 48 42 36 31 27 24 20 14 9 6 2 355 352 351 317 290 283 282 277 263 274 263 267 266 286 324 293 291 303 270
103 105 91 85 85 83 80 75 72 66 61 57 51 44 39 33 27 24 19 12 6 359 354 351 350 347 349 345 337 321 305 295 277 287 285 274 254 91 296 290 290 293 307
104 106 101 86 80 78 76 72 69 65 60 56 52 46 42 38 29 23 22 11 4 358 349 345 340 337 336 337 336 337 331 318 282 265 268 301 290 158 265 280 284 282 284
100 102 103 104 107 85 73 70 68 65 63 59 54 47 47 50 43 30 23 14 8 0 354 347 338 328 320 315 315 321 321 311 286 275 276 269 268 191 255 282 280 278 278
96 100 98 95 92 83 97 77 78 75 75 74 66 38 295 167 117 68 14 19 8 1 355 349 341 331 318 303 295 302 306 295 262 257 258 259 266 251 298 290 298 291 283
100 95 87 93 88 90 91 116 136 135 153 166 155 210 261 27 22 357 68 2 351 355 337 344 340 326 305 278 253 253 273 270 270 299 221 48 8 339 318 308 309 295 289
122 109 100 89 80 80 85 86 83 76 52 40 30 17 15 5 11 321 262 247 274 324 280 309 299 290 293 343 333 245 289 320 314 298 294 59 14 342 319 318 322 315 303
130 111 100 92 73 75 66 32 60 51 42 49 28 11 4 356 357 6 356 2 350 355 348 341 340 350 341 336 332 328 326 319 304 309 32 50 17 332 323 328 334 332 321
137 123 117 107 95 68 64 55 63 49 46 27 26 10 3 5 7 1 4 355 354 353 346 343 340 337 333 332 334 330 331 327 320 323 47 58 33 351 340 337 338 336 335
136 141 127 118 98 84 71 70 65 59 42 38 32 23 10 17 5 354 0 0 356 349 348 343 340 338 334 332 328 328 330 331 334 331 355 65 50 21 13 10 8 2 353
143 143 138 125 107 100 85 78 50 49 49 37 41 28 26 11 4 358 357 3 357 351 346 342 339 340 332 332 333 331 330 324 343 337 341 82 66 43 29 27 21 16 10
153 140 142 136 138 127 117 81 83 68 52 56 56 44 24 20 357 359 359 359 357 351 347 347 350 344 340 337 335 335 341 338 328 354 13 41 81 64 44 40 38 34 29
144 155 150 144 160 155 117 113 87 79 75 63 53 44 25 20 6 3 356 1 351 353 349 346 351 353 343 345 339 347 349 7 17 26 52 41 67 96 68 46 40 35 30
158 159 161 163 180 163 144 127 112 119 256 90 34 39 26 6 8 355 357 358 348 350 348 348 352 354 344 352 326 348 20 31 36 47 51 46 35 24 20 53 52 52 36
174 169 167 175 172 169 155 175 196 193 226 292 332 10 337 358 1 349 348 357 349 348 350 352 355 350 347 352 323 333 358 35 40 27 33 62 51 34 29 23 17 52 48
180 181 187 181 178 184 187 209 218 238 198 247 259 289 287 330 342 331 347 345 347 347 343 348 353 347 355 359 334 333 186 156 167 119 9 7 33 53 32 19 21 10 9
188 195 192 194 176 194 218 126 317 337 304 321 295 263 269 281 287 293 328 321 334 328 339 350 0 347 348 10 349 289 333 205 199 151 14 337 355 351 12 27 18 15 11
201 196 195 190 188 193 185 172 203 219 240 240 223 248 241 253 252 267 277 288 301 301 317 328 347 350 340 344 2 0 332 349 343 116 129 340 1 360 17 20 22 22 9
204 187 194 188 190 188 185 211 236 275 287 300 288 281 266 249 257 247 252 259 274 282 284 300 320 322 320 335 332 33 308 311 314 326 20 242 178 58 15 10 4 22 15
191 179 192 186 189 188 192 224 237 254 277 287 290 283 273 264 250 254 247 251 250 255 263 275 290 298 304 306 320 326 317 299 261 266 304 324 329 351 126 47 360 359 15
184 183 189 187 192 192 201 216 241 269 284 288 284 280 272 263 248 240 242 245 252 256 256 264 275 277 288 297 296 297 295 312 321 303 307 313 313 289 321 111 298 3 4